Orbital Elements at Epoch 2459200.5 (2020-Dec-17.0) TDB
Reference: JPL 17 (heliocentric ecliptic J2000)
Element | Value | Uncertainty (1-sigma) | Units |
e | .1198655561509951 | 6.7892e-08 | |
a | 2.722001683397801 | 1.9399e-08 | au |
q | 2.395727437773379 | 1.885e-07 | au |
i | 13.05410032641785 | 8.4313e-06 | deg |
node | 335.8021194673701 | 2.0165e-05 | deg |
peri | 143.2463610622567 | 3.2895e-05 | deg |
M | 333.1301594373122 | 2.5773e-05 | deg |
tp | 2459322.931621040892 (2021-Apr-18.43162104) | 0.00011773 | TDB |
period | 1640.329181406663 4.49 | 1.7535e-05 4.801e-08 | d yr |
n | .219468143395024 | 2.3461e-09 | deg/d |
Q | 3.048275929022223 | 2.1724e-08 | au |
|
| | Orbit Determination Parameters
Additional Information
|